When you browse on this site, cookies collect data to enhance your experience and personalize the content and advertising you see.
Visit our Privacy Policy to learn more. By continuing to use the site, you agree to this use of cookies and data.
  • In United Kingdom
  • List of Countries
  • For 7 days
  • Water Temperature
  • Weather Map
  • Weather Widgets
  • user-avatar
    Login

    Hourly Weather Khujand

    Today, 19 September, Thursday

    Time Temperature Precipitation Wind Pressure Humidity
    00:00 +25°C° 0 mm 1 mps 727 mmHg 21%
    01:00 +24°C° 0 mm 1 mps 727 mmHg 21%
    02:00 +24°C° 0 mm 1 mps 727 mmHg 21%
    03:00 +23°C° 0 mm 1 mps 727 mmHg 22%
    04:00 +23°C° 0 mm 1 mps 727 mmHg 22%
    05:00 +23°C° 0 mm 2 mps 728 mmHg 22%
    06:00 +24°C° 0 mm 2 mps 728 mmHg 21%
    07:00 +26°C° 0 mm 3 mps 728 mmHg 20%
    08:00 +28°C° 0 mm 4 mps 729 mmHg 18%
    09:00 +30°C° 0 mm 4 mps 729 mmHg 16%
    10:00 +33°C° 0 mm 4 mps 729 mmHg 14%
    11:00 +35°C° 0 mm 4 mps 729 mmHg 12%
    12:00 +36°C° 0 mm 4 mps 729 mmHg 11%
    13:00 +37°C° 0 mm 4 mps 728 mmHg 11%
    14:00 +38°C° 0 mm 3 mps 728 mmHg 10%
    15:00 +38°C° 0 mm 2 mps 728 mmHg 10%
    16:00 +37°C° 0 mm 2 mps 728 mmHg 10%
    17:00 +36°C° 0 mm 1 mps 728 mmHg 10%
    18:00 +34°C° 0 mm 1 mps 728 mmHg 13%
    19:00 +31°C° 0 mm 1 mps 728 mmHg 15%
    20:00 +28°C° 0 mm 1 mps 728 mmHg 18%
    21:00 +27°C° 0 mm 1 mps 728 mmHg 18%
    22:00 +27°C° 0 mm 1 mps 728 mmHg 18%
    23:00 +26°C° 0 mm 2 mps 728 mmHg 18%

    Tomorrow, 20 September, Friday

    Time Temperature Precipitation Wind Pressure Humidity
    00:00 +25°C° 0 mm 2 mps 727 mmHg 19%
    01:00 +24°C° 0 mm 2 mps 727 mmHg 20%
    02:00 +24°C° 0 mm 2 mps 727 mmHg 21%
    03:00 +23°C° 0 mm 2 mps 727 mmHg 23%
    04:00 +21°C° 0 mm 2 mps 727 mmHg 25%
    05:00 +22°C° 0 mm 1 mps 727 mmHg 27%
    06:00 +23°C° 0 mm 1 mps 727 mmHg 26%
    07:00 +25°C° 0 mm 1 mps 727 mmHg 24%
    08:00 +27°C° 0 mm 1 mps 727 mmHg 23%
    09:00 +28°C° 0 mm 2 mps 727 mmHg 21%
    10:00 +30°C° 0 mm 2 mps 727 mmHg 19%
    11:00 +32°C° 0 mm 2 mps 727 mmHg 17%
    12:00 +34°C° 0 mm 2 mps 726 mmHg 16%
    13:00 +35°C° 0 mm 2 mps 726 mmHg 15%
    14:00 +36°C° 0 mm 2 mps 726 mmHg 14%
    15:00 +36°C° 0 mm 2 mps 726 mmHg 14%
    16:00 +36°C° 0 mm 2 mps 726 mmHg 14%
    17:00 +36°C° 0 mm 2 mps 726 mmHg 14%
    18:00 +34°C° 0 mm 2 mps 726 mmHg 17%
    19:00 +30°C° 0 mm 2 mps 726 mmHg 19%
    20:00 +28°C° 0 mm 1 mps 726 mmHg 22%
    21:00 +27°C° 0 mm 1 mps 726 mmHg 23%
    22:00 +26°C° 0 mm 1 mps 726 mmHg 25%
    23:00 +25°C° 0 mm 1 mps 725 mmHg 26%

    Day after tomorrow, 21 September, Saturday

    Time Temperature Precipitation Wind Pressure Humidity
    00:00 +25°C° 0 mm 1 mps 725 mmHg 27%
    01:00 +24°C° 0 mm 1 mps 725 mmHg 28%
    02:00 +24°C° 0 mm 1 mps 725 mmHg 29%
    03:00 +23°C° 0 mm 1 mps 725 mmHg 30%
    04:00 +23°C° 0 mm 1 mps 725 mmHg 31%
    05:00 +22°C° 0 mm 1 mps 725 mmHg 31%
    06:00 +24°C° 0 mm 1 mps 725 mmHg 28%
    07:00 +26°C° 0 mm 2 mps 725 mmHg 25%
    08:00 +28°C° 0 mm 3 mps 725 mmHg 22%
    09:00 +30°C° 0 mm 4 mps 725 mmHg 20%
    10:00 +33°C° 0 mm 4 mps 725 mmHg 17%
    11:00 +35°C° 0 mm 5 mps 725 mmHg 15%
    12:00 +37°C° 0 mm 5 mps 724 mmHg 14%
    13:00 +39°C° 0 mm 5 mps 724 mmHg 13%
    14:00 +40°C° 0 mm 5 mps 723 mmHg 11%
    15:00 +40°C° 0 mm 4 mps 723 mmHg 11%
    16:00 +38°C° 0 mm 4 mps 723 mmHg 11%
    17:00 +38°C° 0 mm 3 mps 723 mmHg 11%
    18:00 +36°C° 0 mm 2 mps 723 mmHg 14%
    19:00 +32°C° 0 mm 2 mps 723 mmHg 16%
    20:00 +29°C° 0 mm 1 mps 723 mmHg 19%
    21:00 +28°C° 0 mm 1 mps 722 mmHg 20%
    22:00 +27°C° 0 mm 1 mps 722 mmHg 21%
    23:00 +27°C° 0 mm 1 mps 722 mmHg 23%

    22 September, Sunday

    Time Temperature Precipitation Wind Pressure Humidity
    00:00 +27°C° 0 mm 1 mps 722 mmHg 22%
    01:00 +26°C° 0 mm 1 mps 722 mmHg 22%
    02:00 +26°C° 0 mm 2 mps 722 mmHg 22%
    03:00 +26°C° 0 mm 2 mps 722 mmHg 23%
    04:00 +25°C° 0 mm 2 mps 722 mmHg 24%
    05:00 +25°C° 0 mm 3 mps 722 mmHg 24%
    06:00 +27°C° 0 mm 3 mps 722 mmHg 22%
    07:00 +28°C° 0 mm 3 mps 723 mmHg 20%
    08:00 +30°C° 0 mm 3 mps 723 mmHg 17%
    09:00 +33°C° 0 mm 3 mps 723 mmHg 15%
    10:00 +35°C° 0 mm 3 mps 723 mmHg 13%
    11:00 +37°C° 0 mm 4 mps 723 mmHg 11%
    12:00 +38°C° 0 mm 3 mps 723 mmHg 10%
    13:00 +39°C° 0 mm 2 mps 723 mmHg 9%
    14:00 +40°C° 0 mm 2 mps 723 mmHg 8%
    15:00 +41°C° 0 mm 2 mps 723 mmHg 8%
    16:00 +42°C° 0 mm 3 mps 723 mmHg 7%
    17:00 +42°C° 0 mm 3 mps 723 mmHg 7%
    18:00 +38°C° 0 mm 4 mps 724 mmHg 8%
    19:00 +36°C° 0 mm 6 mps 725 mmHg 10%
    20:00 +34°C° 0 mm 7 mps 726 mmHg 11%
    21:00 +30°C° 0 mm 7 mps 727 mmHg 24%
    22:00 +26°C° 0 mm 7 mps 727 mmHg 37%
    23:00 +22°C° 0 mm 7 mps 728 mmHg 49%

    23 September, Monday

    Time Temperature Precipitation Wind Pressure Humidity
    00:00 +21°C° 0 mm 6 mps 728 mmHg 55%
    01:00 +20°C° 0 mm 6 mps 728 mmHg 61%
    02:00 +19°C° 0 mm 5 mps 728 mmHg 66%
    03:00 +19°C° 0 mm 5 mps 728 mmHg 68%
    04:00 +17°C° 0 mm 5 mps 728 mmHg 70%
    05:00 +17°C° 0 mm 4 mps 728 mmHg 72%
    06:00 +18°C° 0 mm 4 mps 728 mmHg 68%
    07:00 +19°C° 0 mm 4 mps 728 mmHg 65%
    08:00 +19°C° 0 mm 4 mps 729 mmHg 61%
    09:00 +21°C° 0 mm 3 mps 728 mmHg 55%
    10:00 +24°C° 0 mm 3 mps 728 mmHg 50%
    11:00 +25°C° 0 mm 3 mps 728 mmHg 44%
    12:00 +27°C° 0 mm 4 mps 728 mmHg 40%
    13:00 +28°C° 0 mm 4 mps 727 mmHg 35%
    14:00 +30°C° 0 mm 4 mps 727 mmHg 31%
    15:00 +30°C° 0 mm 4 mps 727 mmHg 30%
    16:00 +30°C° 0 mm 4 mps 727 mmHg 29%
    17:00 +30°C° 0 mm 4 mps 727 mmHg 28%
    18:00 +28°C° 0 mm 4 mps 727 mmHg 31%
    19:00 +26°C° 0 mm 3 mps 727 mmHg 34%
    20:00 +25°C° 0 mm 3 mps 728 mmHg 37%
    21:00 +24°C° 0 mm 3 mps 728 mmHg 37%
    22:00 +22°C° 0 mm 3 mps 728 mmHg 38%
    23:00 +22°C° 0 mm 3 mps 727 mmHg 38%

    24 September, Tuesday

    Time Temperature Precipitation Wind Pressure Humidity
    00:00 +21°C° 0 mm 3 mps 727 mmHg 39%
    01:00 +20°C° 0 mm 3 mps 727 mmHg 39%
    02:00 +20°C° 0 mm 2 mps 727 mmHg 40%
    03:00 +19°C° 0 mm 2 mps 727 mmHg 40%
    04:00 +18°C° 0 mm 3 mps 727 mmHg 40%
    05:00 +18°C° 0 mm 3 mps 727 mmHg 40%
    06:00 +19°C° 0 mm 3 mps 728 mmHg 37%
    07:00 +19°C° 0 mm 3 mps 728 mmHg 33%
    08:00 +20°C° 0 mm 3 mps 728 mmHg 30%
    09:00 +22°C° 0 mm 4 mps 728 mmHg 27%
    10:00 +25°C° 0 mm 5 mps 728 mmHg 23%
    11:00 +26°C° 0 mm 5 mps 728 mmHg 19%
    12:00 +28°C° 0 mm 6 mps 728 mmHg 19%
    13:00 +29°C° 0 mm 6 mps 728 mmHg 18%
    14:00 +30°C° 0 mm 6 mps 728 mmHg 17%
    15:00 +30°C° 0 mm 6 mps 728 mmHg 17%
    16:00 +30°C° 0 mm 6 mps 728 mmHg 17%
    17:00 +29°C° 0 mm 6 mps 728 mmHg 16%
    18:00 +27°C° 0 mm 5 mps 729 mmHg 18%
    19:00 +25°C° 0 mm 4 mps 729 mmHg 19%
    20:00 +24°C° 0 mm 3 mps 729 mmHg 21%
    21:00 +22°C° 0 mm 3 mps 729 mmHg 21%
    22:00 +21°C° 0 mm 3 mps 729 mmHg 22%
    23:00 +20°C° 0 mm 3 mps 729 mmHg 23%
    Show more